Location: Northam
(31.6525°S, 116.6655°E)
Time: 20:03:06
(UTC+08:00)

Vanguard 2 - Visible Passes

Search period start: 13 June 2021 00:00
Search period end: 23 June 2021 00:00
Orbit: 552 x 2937 km, 32.9° (Epoch: 13 June)

Date Brightness Start Highest point End Pass type
(mag) Time Alt. Az. Time Alt. Az. Time Alt. Az.
13 Jun 11.0 04:35:26 10° NNE 04:38:58 13° NE 04:43:14 10° ENE visible
13 Jun 10.2 06:38:17 10° NW 06:46:40 53° NNE 07:00:23 10° ESE visible
14 Jun 10.6 04:50:44 10° N 04:56:01 21° NE 05:03:16 10° E visible
15 Jun 10.4 05:07:04 10° NNW 05:13:08 30° NE 05:22:15 10° E visible
16 Jun 9.9 05:23:55 10° NNW 05:30:23 41° NE 05:40:47 10° E visible
17 Jun 10.6 03:38:49 10° NE 03:40:32 11° NE 03:42:27 10° ENE visible
17 Jun 9.5 05:41:05 10° NW 05:47:48 53° NNE 05:59:06 10° ESE visible
18 Jun 10.1 03:56:10 17° NNE 03:57:37 18° NE 04:02:51 10° E visible
18 Jun 9.2 05:58:28 10° WNW 06:05:23 67° NNE 06:17:18 10° ESE visible
19 Jun 9.6 04:13:32 26° NNE 04:14:48 27° NE 04:21:45 10° E visible
19 Jun 9.0 06:16:00 10° WNW 06:23:07 79° NNE 06:35:29 10° ESE visible
20 Jun 9.0 04:30:49 35° N 04:32:07 39° NE 04:40:12 10° E visible
20 Jun 9.0 06:33:41 10° WNW 06:40:58 88° NNE 06:53:40 10° E visible
21 Jun 8.6 04:48:01 43° NNW 04:49:34 53° NNE 04:58:25 10° E visible
22 Jun 8.4 05:05:10 45° NW 05:07:10 68° NNE 05:16:33 10° ESE visible
